STARLINK-34266 (65093 NORAD) Tracking and Keplerian Element Data

This shows tracking and keplerian element data for the satellite.

Feedback or suggestion? Click here.




ElementValue
Catalog65093
NameSTARLINK-34266
Epoch Orbit2124
Epoch Day353.78275679
Epoch Year2025
RAAN37.967
Inclination53.1598
Eccentricity0.0001284
Argument of Perigee84.7601
Mean Anonmoly275.3546
Mean Motion15.3019607
Decay Rate0.00011896
L11 65093U 25167R 25353.78275679 .00011896 00000+0 41317-3 0 9996
L22 65093 53.1598 37.9670 0001284 84.7601 275.3546 15.30196070 21242



Live tracking and technical data element details for STARLINK-34266 (NORAD 65093). STARLINK-34266 can be tracked NOW for your location showing map with azimuth and elevation plus other details from your city location.







IsCatalogInMostPopularTable: catalog: 65093, numindb: 3
Update: records affected: 1



GetName: 65093 STARLINK-34266

Hit Count: updated at: Sat, 07 Feb 2026 08:26:26 GMT